This is the latest recevied weather packets stored in our database for station/object DL9GRB-13. If no packets are shown the sender has not sent any weather packets the latest 10 day(s).
| Time | Temp. | Humidity | Pressure | Rain* | Wind** | Luminosity | Snow |
|---|---|---|---|---|---|---|---|
| 1777883827 | 13.33° C | 79% | 1011.1 hPa | 0 mm | - | 183 W/m² | - |
| 1777883647 | 13.33° C | 80% | 1011.1 hPa | 0 mm | - | 148 W/m² | - |
| 1777883467 | 13.33° C | 79% | 1011.1 hPa | 0 mm | - | 163 W/m² | - |
| 1777883287 | 13.33° C | 79% | 1010.9 hPa | 0 mm | - | 155 W/m² | - |
| 1777883107 | 13.33° C | 79% | 1010.8 hPa | 0 mm | - | 136 W/m² | - |
| 1777882927 | 13.33° C | 79% | 1011.1 hPa | 0 mm | - | 110 W/m² | - |
| 1777882747 | 13.33° C | 79% | 1010.9 hPa | 0 mm | - | 121 W/m² | - |
| 1777882567 | 13.33° C | 79% | 1010.9 hPa | 0 mm | - | 131 W/m² | - |
| 1777882387 | 13.33° C | 79% | 1010.6 hPa | 0 mm | - | 154 W/m² | - |
| 1777882207 | 13.33° C | 79% | 1010.6 hPa | 0 mm | - | 132 W/m² | - |
| 1777882027 | 13.33° C | 79% | 1010.7 hPa | 0 mm | - | 167 W/m² | - |
| 1777881847 | 13.33° C | 79% | 1010.6 hPa | 0 mm | - | 178 W/m² | - |
| 1777881667 | 13.33° C | 80% | 1010.6 hPa | 0 mm | - | 218 W/m² | - |
| 1777881487 | 13.33° C | 80% | 1010.6 hPa | 0 mm | - | 171 W/m² | - |
| 1777881307 | 13.33° C | 80% | 1010.4 hPa | 0 mm | - | 158 W/m² | - |
| 1777881127 | 12.78° C | 81% | 1010.3 hPa | 0 mm | - | 175 W/m² | - |
| 1777880947 | 12.78° C | 81% | 1010.3 hPa | 0 mm | - | 265 W/m² | - |
| 1777880767 | 12.78° C | 81% | 1010.6 hPa | 0 mm | - | 130 W/m² | - |
| 1777880587 | 12.78° C | 82% | 1010.6 hPa | 0 mm | - | 101 W/m² | - |
| 1777880407 | 12.78° C | 81% | 1010.4 hPa | 0 mm | - | 79 W/m² | - |
| 1777880227 | 12.78° C | 81% | 1010.5 hPa | 0 mm | - | 77 W/m² | - |
| 1777880047 | 12.78° C | 80% | 1010.5 hPa | 0 mm | - | 89 W/m² | - |
| 1777879867 | 12.78° C | 80% | 1010.5 hPa | 0 mm | - | 79 W/m² | - |
| 1777879687 | 12.78° C | 79% | 1010.4 hPa | 0 mm | - | 103 W/m² | - |
| 1777879507 | 12.78° C | 79% | 1010.3 hPa | 0 mm | - | 101 W/m² | - |
* Rain latest hour (hover to see other rain measurements)
** Current wind speed in m/s (hover to see current wind gust speed)